Home > Weather > Dillenburg > Past weeks

Flag for Germany Past Weather in Dillenburg, Hesse, Germany — Yesterday and Last 2 Weeks

Now
53 °F

Passing clouds.


Feels Like: 52 °F
Forecast: 50 / 65 °F
Wind: 3 mph from Southwest

Location: Aachen-Orsbach

Current Time: Jun 26, 2016 at 5:02:23 AM

Latest Report: Jun 26, 2016 at 4:00 AM


Visibility: 8 mi

Pressure: 30.05 "Hg

Humidity: 94%

Dew Point: 51 °F

Location of DillenburgLocation

Past Weather in Dillenburg — Graph

°F

Dillenburg Temperature Yesterday

Maximum temperature yesterday: 66 °F (at 12:00 AM)
Minimum temperature yesterday: 57 °F (at 4:00 PM)
Average temperature yesterday: 60 °F

High & Low Weather Summary for the Past Weeks

 TemperatureHumidityPressure
High86 °F (Jun 23, 4:00 PM)97% (Jun 12, 7:00 AM)30.28 "Hg (Jun 12, 7:00 AM)
Low50 °F (Jun 16, 3:00 AM)54% (Jun 19, 6:00 PM)29.47 "Hg (Jun 14, 4:00 PM)
Average61 °F84%29.89 "Hg
* Reported Jun 11 4:00 AM — Jun 26 4:00 AM, Dillenburg, Weather by CustomWeather, © 2016

Note: Actual official high and low records may vary slightly from our data, if they occured in-between our weather recording intervals... More about our weather records

Advertising

Dillenburg Weather History for the Previous 24 Hours

Scroll right to see more
 ConditionsComfort  
Time TempWeatherWind HumidityBarometerVisibility
4:00 AM
Sun, Jun 26
53 °FPassing clouds.3 mph94%30.05 "Hg8 mi
3:00 AM53 °FPassing clouds.5 mph92%30.04 "Hg9 mi
1:00 AM53 °FPassing clouds.3 mph93%30.06 "Hg7 mi
12:00 AM53 °FPassing clouds.3 mph93%30.05 "Hg7 mi
10:00 PM
Sat, Jun 25
58 °FOvercast.1 mph91%30.03 "Hg9 mi
9:00 PM58 °FScattered clouds.2 mph82%30.02 "Hg17 mi
7:00 PM60 °FPartly sunny.3 mph80%30.00 "Hg9 mi
6:00 PM58 °FLow clouds.5 mph91%30.02 "Hg4 mi
4:00 PM57 °FLight rain. Low clouds.6 mph96%30.01 "Hg2 mi
3:00 PM57 °FLight rain. Low clouds.8 mph94%30.01 "Hg2 mi
1:00 PM59 °FOvercast.2 mph93%29.99 "Hg2 mi
12:00 PM60 °FOvercast.6 mph88%29.98 "Hg6 mi
10:00 AM58 °FOvercast.3 mph90%29.99 "Hg8 mi
9:00 AM57 °FLight rain. Overcast.3 mph91%30.01 "Hg4 mi
7:00 AM60 °FLow clouds.3 mph93%30.01 "Hg3 mi
6:00 AM60 °FLow clouds.3 mph94%30.01 "Hg2 mi
Weather by CustomWeather, © 2016

See weather overviewHow to use our weather pages